�ϑ��N����,2023/9/27,,,
�ϑ���,����仍��q,,,
�ϑ��n�_,A5 ,,,
���x�v�ԍ�,A34,,,
,,,,
����,�C��,����,����,���l
9:30:00,-999,-999,,
9:31:00,-999,-999,,
9:32:00,-999,-999,,
9:33:00,-999,-999,,
9:34:00,-999,-999,,
9:35:00,-999,-999,,
9:36:00,-999,-999,,
9:37:00,-999,-999,,
9:38:00,-999,-999,,
9:39:00,-999,-999,,
9:40:00,-999,-999,,
9:41:00,-999,-999,,
9:42:00,-999,-999,,
9:43:00,-999,-999,,
9:44:00,-999,-999,,
9:45:00,-999,-999,,
9:46:00,-999,-999,,
9:47:00,-999,-999,,
9:48:00,-999,-999,,
9:49:00,-999,-999,,
9:50:00,-999,-999,,
9:51:00,-999,-999,,
9:52:00,-999,-999,,
9:53:00,-999,-999,,
9:54:00,-999,-999,,
9:55:00,-999,-999,,
9:56:00,31.1,6,,
9:57:00,32,6,,
9:58:00,31.9,6,,
9:59:00,31.8,6,,
10:00:00,30.9,6,,
10:01:00,30.8,6,,
10:02:00,30.7,6,,
10:03:00,30.5,6,,
10:04:00,30.1,6,,
10:05:00,30.2,6,,
10:06:00,31.5,6,,
10:07:00,31,6,,
10:08:00,31,6,,
10:09:00,31.5,6,,
10:10:00,32.5,6,,
10:11:00,32,7,,
10:12:00,31.5,7,,
10:13:00,32.5,7,,
10:14:00,32,7,,
10:15:00,31.5,7,,
10:16:00,32.5,7,,
10:17:00,31.5,7,,
10:18:00,31.5,7,,
10:19:00,31.5,7,,
10:20:00,31.6,7,,
10:21:00,31.7,7,,
10:22:00,32.5,7,,
10:23:00,32.1,7,,
10:24:00,32.5,7,,
10:25:00,31.6,7,,
10:26:00,32.5,7,,
10:27:00,31.6,7,,
10:28:00,32.5,7,,
10:29:00,32.4,7,,
10:30:00,33,7,,
10:31:00,32,7,,
10:32:00,31.9,7,,
10:33:00,31.5,7,,
10:34:00,31.4,7,,
10:35:00,31.5,7,,
10:36:00,31.4,1,,
10:37:00,30.5,7,,
10:38:00,30.4,7,,
10:39:00,31.3,7,,
10:40:00,31.1,7,,
10:41:00,31,7,,
10:42:00,30.5,7,,
10:43:00,30.1,7,,
10:44:00,30.5,7,,
10:45:00,32.5,7,,
10:46:00,32,7,,
10:47:00,31.5,7,,
10:48:00,31.5,7,,
10:49:00,31.4,8,,
10:50:00,31,7,,
10:51:00,31,7,,
10:52:00,31.5,7,,
10:53:00,31.5,7,,
10:54:00,31.4,7,,
10:55:00,31.3,7,,
10:56:00,31.5,7,,
10:57:00,31.2,7,,
10:58:00,31.5,7,,
10:59:00,31.4,7,,
11:00:00,31,7,,
11:01:00,31,7,,
11:02:00,30.8,7,,
11:03:00,30.6,7,,
11:04:00,30.4,7,,
11:05:00,30.3,7,,
11:06:00,30.5,7,,
11:07:00,30.3,7,,
11:08:00,30,7,,
11:09:00,29.9,7,,
11:10:00,30.1,7,,
11:11:00,30.2,7,,
11:12:00,30.5,7,,
11:13:00,31,7,,
11:14:00,31.2,7,,
11:15:00,31.1,7,,
11:16:00,30.9,7,,
11:17:00,30.5,7,,
11:18:00,30,7,,
11:19:00,29.8,7,,
11:20:00,29.5,7,,
11:21:00,29.3,7,,
11:22:00,29,7,,
11:23:00,29.3,7,,
11:24:00,29.5,7,,
11:25:00,29.4,7,,
11:26:00,-999,-999,,
11:27:00,-999,-999,,
11:28:00,-999,-999,,
11:29:00,-999,-999,,
11:30:00,-999,-999,,
